Terminal Aerodrome Forecast
Issued by NWS

Home | Current Version | Previous Version | Text Only | Print | Product List | Glossary On
Versions: 1 2 3 4 5 6 7 8 9 10 11 12 13 14 15 16 17 18 19 20 21 22 23 24 25 26 27 28 29 30 31 32 33
000
FTUS43 KDMX 282335
TAFFOD
TAF
KFOD 282335Z 2900/2924 04006KT P6SM FEW008 BKN150
     FM290300 05006KT P6SM SCT005 OVC080
     FM291000 04009KT 4SM -SN SCT008 OVC025=

USA.gov is the U.S. government's official web portal to all federal, state and local government web resources and services.